Home   Weather   Jastrzębie Zdrój   Past weeks

Flag for Poland Past Weather in Jastrzębie Zdrój, Poland — Yesterday and Last 2 Weeks

Now
33 °F

Fog.


Feels Like: 25 °F
Forecast: 34 / 46 °F
Wind: 10 mph from Southwest

Location: Ostrava / Mosnov

Current Time: Dec 9, 2016 at 12:33:57 pm

Latest Report: Dec 9, 2016 at 11:00 am


Visibility: 4 mi

Pressure: 30.33 "Hg

Humidity: 82%

Dew Point: 28 °F

Location of Jastrzębie ZdrójLocation

Past Weather in Jastrzębie Zdrój — Graph

°F

Jastrzębie Zdrój Temperature Yesterday

Maximum temperature yesterday: 35 °F (at 1:00 pm)
Minimum temperature yesterday: 30 °F (at 10:00 pm)
Average temperature yesterday: 32 °F

High & Low Weather Summary for the Past Weeks

 TemperatureHumidityPressure
High51 °F (Nov 24, 2:00 pm)100% (Nov 24, 8:00 pm)30.70 "Hg (Nov 24, 8:00 pm)
Low21 °F (Dec 5, 4:00 am)61% (Nov 30, 1:00 pm)29.65 "Hg (Dec 2, 4:00 am)
Average34 °F86%30.27 "Hg
* Reported Nov 24 11:00 am — Dec 9 11:00 am, Jastrzębie Zdrój, Weather by CustomWeather, © 2016

Note: Actual official high and low records may vary slightly from our data, if they occured in-between our weather recording intervals... More about our weather records

Advertising

Jastrzębie Zdrój Weather History for the Previous 24 Hours

Scroll right to see more
 ConditionsComfort  
Time TempWeatherWind HumidityBarometerVisibility
11:00 am
Fri, Dec 9
33 °FFog.10 mph82%30.33 "Hg4 mi
10:00 am31 °FFog.9 mph87%30.34 "Hg3 mi
9:00 am30 °FFog.9 mph88%30.34 "Hg3 mi
8:00 am30 °FFog.9 mph89%30.33 "Hg3 mi
7:00 am29 °FFog.9 mph89%30.33 "Hg3 mi
6:00 am30 °FFog.9 mph89%30.32 "Hg5 mi
5:00 am30 °FFog.8 mph90%30.36 "Hg5 mi
4:00 am31 °FOvercast.10 mph89%30.36 "Hg4 mi
3:00 am31 °FFog.13 mph89%30.37 "Hg4 mi
2:00 am31 °FFog.12 mph88%30.37 "Hg4 mi
1:00 am31 °FFog.14 mph88%30.37 "Hg4 mi
11:00 pm
Thu, Dec 8
31 °FFog.10 mph90%30.41 "Hg4 mi
10:00 pm30 °FFog.12 mph92%30.41 "Hg4 mi
9:00 pm31 °FFog.12 mph91%30.42 "Hg4 mi
8:00 pm31 °FFog.10 mph88%30.41 "Hg4 mi
7:00 pm31 °FFog.12 mph90%30.43 "Hg4 mi
5:00 pm31 °FFog.10 mph90%30.45 "Hg4 mi
4:00 pm32 °FFog.9 mph89%30.44 "Hg3 mi
3:00 pm33 °FFog.10 mph87%30.45 "Hg3 mi
2:00 pm34 °FFog.12 mph83%30.44 "Hg3 mi
1:00 pm35 °FFog.10 mph81%30.46 "Hg3 mi
12:00 pm34 °FFog.10 mph83%30.50 "Hg3 mi
Weather by CustomWeather, © 2016

See weather overviewHow to use our weather pages